STARLINK-4074 (52678 NORAD) Tracking and Keplerian Element Data

This shows tracking and keplerian element data for the satellite.

Feedback or suggestion? Click here.




ElementValue
Catalog52678
NameSTARLINK-4074
Epoch Orbit1727
Epoch Day248.16667824
Epoch Year2022
RAAN137.099
Inclination53.2131
Eccentricity0.0002359
Argument of Perigee52.0961
Mean Anonmoly18.1714
Mean Motion15.08821266
Decay Rate0.00053693
L11 52678U 22053Y 22248.16667824 .00053693 00000+0 33678-2 0 9992
L22 52678 53.2131 137.0990 0002359 52.0961 18.1714 15.08821266 17274

Live tracking and technical data element details for STARLINK-4074 (NORAD 52678). STARLINK-4074 can be tracked NOW for your location showing map with azimuth and elevation plus other details from your city location.

Track the satellite on the map from your city or location and see movement details for azimuth, elevation, latitude, longitude, range, height, and movement on the map or in text.







IsCatalogInMostPopularTable: catalog: 52678, numindb: 11
Update: records affected: 1



GetName: 52678 STARLINK-4074

Hit Count: updated at: Sun, 25 Sep 2022 07:28:58 GMT